Weather Roundup
Issued by NWS Chicago, IL

Home | Current Version | Previous Version | Graphics & Text | Print | Product List | Glossary On
Versions: 1 2 3 4 5 6 7 8 9 10 11 12 13 14 15 16 17 18 19 20 21 22 23 24 25 26 27 28 29 30 31 32 33 34 35 36 37 38 39 40 41 42 43 44 45 46 47 48 49 50
564
NZUS59 KLOT 251412
HRRLOT

CHICAGO AREA WEATHER ROUNDUP
NATIONAL WEATHER SERVICE CHICAGO/ROMEOVILLE IL
800 AM CST SAT FEB 25 2017

NOTE: "FAIR" INDICATES FEW OR NO CLOUDS BELOW 12,000 FEET WITH NO
SIGNIFICANT WEATHER AND/OR OBSTRUCTIONS TO VISIBILITY.

* THESE STATIONS ARE NOT UNDER NWS QUALITY CONTROL. THEY ALSO MAY NOT
  REPORT WEATHER SUCH AS PRECIPITATION OR FOG.

ILZ005-006-012>014-019>023-251500-
NORTHEAST ILLINOIS

CITY           SKY/WX    TMP DP  RH WIND       PRES   REMARKS
OHARE          FLURRIES  23  14  68 NW18      29.77R WCI   9
MIDWAY         FLURRIES  23  12  62 W23       29.78R WCI   7
AURORA         CLOUDY    22  16  78 W17G25    29.81R WCI   8
LANSING*       CLOUDY    24  18  76 W23       29.78R WCI   9
JOLIET*        FLURRIES  24  16  70 W14G21    29.82R WCI  12
WAUKEGAN       PTSUNNY   21  14  74 NW13G20   29.74R WCI   9
DUPAGE AIRPORT LGT SNOW  21  13  71 NW16      29.78R WCI   7
WHEELING       CLOUDY    21  13  71 W16       29.78R WCI   7
KANKAKEE*      CLOUDY    24  16  71 W16G24    29.83R WCI  10
MORRIS*        FLURRIES  23  16  73 NW17G25   29.83R WCI   9
LEWIS AIRPORT* CLOUDY    22  18  83 NW20G28   29.81R WCI   7
NORTHERLY ISL    N/A     24  15  68 W12         N/A  WCI  13
$$

WIZ051-052-058>065-066-070>072-251500-
SOUTHEAST WISCONSIN

CITY           SKY/WX    TMP DP  RH WIND       PRES   REMARKS
MILWAUKEE      PTSUNNY   22  13  68 NW15G24   29.72R WCI   9
KENOSHA*       LGT SNOW  21  15  78 NW17G24   29.74R WCI   7
RACINE*        CLOUDY    21  13  71 NW17G28   29.74R WCI   7
WAUKESHA       LGT SNOW  18  12  79 NW17G24   29.73R WCI   2
WEST BEND      LGT SNOW  19  16  86 NW7       29.70R WCI  10
$$

INZ001>003-010>013-019-020-251500-
NORTHWEST INDIANA

CITY           SKY/WX    TMP DP  RH WIND       PRES   REMARKS
GARY*          CLOUDY    27  14  59 W17G32    29.77R WCI  14
MICHIGAN CITY* NOT AVBL
RENSSELAER*    NOT AVBL
VALPARAISO     CLOUDY    27  17  66 W21       29.76R WCI  13
$$

LMZ740>746-251500-
SOUTHERN LAKE MICHIGAN

STATION/POSITION TIME  SKY/WX   TEMP WIND        PRES    VSBY
                                AIR  DIR/SP/G
                 (UTC)          (F)  (DEG/KT/KT) (MB)    (MI)
HARRISON CRIB    1340            23  300/ 23/ 25   N/A
BURNHAM HARBOR   1400            23  280/ 16/ 19   N/A
CALUMET HARBOR   1348            24  270/  9/ 16 1007.6R
BURNS HARBOR     1340            27  270/ 22/ 26 1007.8R
MICHIGAN CITY    1340            26  260/ 31/ 33   N/A
$$

ABBREVIATIONS USED IN REMARKS
   TC - TEMPERATURE IN CELSIUS
  WCI - WIND CHILL INDEX
   HX - HEAT INDEX
  VSB - VISIBILITY
$$




USA.gov is the U.S. government's official web portal to all federal, state and local government web resources and services.